Eastsound, WA
on Thursday, January 3, 2013

Thursday
Previous Day Next Day
Daily Summary
 ActualAverage (KBLI)Record (KBLI)
Temperature
Mean Temperature °F 38°F  
Max Temperature 41°F 44°F 57°F (2012)
Min Temperature 28°F 32°F 6°F (1950)
Degree Days
Heating Degree Days 30 27  
Month to date heating degree days 81  
Cooling Degree Days 0 0  
Month to date cooling degree days 0  
Year to date cooling degree days 0  
Moisture
Dew Point 30°F   
Average Humidity 81    
Maximum Humidity 100    
Minimum Humidity 61    
Precipitation
Precipitation 0.00 in 0.15 in 1.44 in (1984)
Month to date precipitation 0.42  
Year to date precipitation 0.42  
Wind
Wind Speed 2 mph   
Max Wind Speed 7 mph   
Max Gust Speed mph   
Visibility 10 miles   
Events Rain   

Key: T is trace of precipitation, MM is missing value
Source: NWS Daily Summary
Time(PST)TemperatureDew PointHumidity Pressure Visibility Wind DirectionWind SpeedGust SpeedPrecipitationEvents Conditions
12:15 AM 30.2°F 30.2°F 100% 30.20 in 5.0 miles Calm Calm - N/A   Clear
12:35 AM 28.4°F 28.4°F 100% 30.19 in 5.0 miles Calm Calm - N/A   Clear
12:55 AM 30.2°F 30.2°F 100% 30.19 in 9.0 miles Calm Calm - N/A   Clear
1:15 AM 35.6°F 32.0°F 87% 30.19 in 10.0 miles NE 3.5 mph - N/A   Clear
1:35 AM 35.6°F 32.0°F 87% 30.19 in 10.0 miles Calm Calm - N/A   Clear
1:55 AM 33.8°F 30.2°F 87% 30.19 in 10.0 miles East 3.5 mph - N/A   Clear
2:15 AM 33.8°F 30.2°F 87% 30.19 in 10.0 miles Calm Calm - N/A   Clear
2:35 AM 32.0°F 30.2°F 93% 30.19 in 10.0 miles Calm Calm - N/A   Clear
2:55 AM 32.0°F 30.2°F 93% 30.20 in 10.0 miles NE 3.5 mph - N/A   Clear
3:15 AM 35.6°F 28.4°F 75% 30.20 in 10.0 miles ENE 3.5 mph - N/A   Clear
3:35 AM 35.6°F 28.4°F 75% 30.18 in 10.0 miles NE 3.5 mph - N/A   Clear
3:55 AM 35.6°F 26.6°F 70% 30.17 in 10.0 miles East 3.5 mph - N/A   Clear
4:15 AM 35.6°F 28.4°F 75% 30.16 in 10.0 miles NE 4.6 mph - N/A   Clear
4:55 AM 33.8°F 28.4°F 81% 30.15 in 10.0 miles Calm Calm - N/A   Clear
5:15 AM 33.8°F 26.6°F 75% 30.15 in 10.0 miles North - - N/A   Clear
5:35 AM 33.8°F 28.4°F 81% 30.14 in 10.0 miles Calm Calm - N/A   Clear
5:55 AM 33.8°F 28.4°F 81% 30.13 in 10.0 miles Calm Calm - N/A   Clear
6:15 AM 32.0°F 28.4°F 87% 30.13 in 10.0 miles Calm Calm - N/A   Clear
6:35 AM 32.0°F 28.4°F 87% 30.12 in 10.0 miles Calm Calm - N/A   Clear
6:55 AM 28.4°F 28.4°F 100% 30.13 in 10.0 miles Calm Calm - N/A   Clear
7:15 AM 30.2°F 28.4°F 93% 30.12 in 10.0 miles Calm Calm - N/A   Clear
7:35 AM 28.4°F 28.4°F 100% 30.12 in 10.0 miles Calm Calm - N/A   Clear
7:55 AM 28.4°F 26.6°F 93% 30.11 in 10.0 miles Calm Calm - N/A   Clear
8:15 AM 28.4°F 28.4°F 100% 30.11 in 9.0 miles Calm Calm - N/A   Clear
8:35 AM 28.4°F 28.4°F 100% 30.11 in 8.0 miles Calm Calm - N/A   Clear
8:55 AM 28.4°F 28.4°F 100% 30.11 in 8.0 miles Calm Calm - N/A   Clear
9:15 AM 30.2°F 28.4°F 93% 30.12 in 9.0 miles Calm Calm - N/A   Clear
9:35 AM 32.0°F 30.2°F 93% 30.12 in 9.0 miles Calm Calm - N/A   Clear
9:55 AM 32.0°F 32.0°F 100% 30.12 in 10.0 miles Calm Calm - N/A   Clear
10:15 AM 33.8°F 32.0°F 93% 30.13 in 10.0 miles Calm Calm - N/A   Clear
10:35 AM 35.6°F 32.0°F 87% 30.13 in 10.0 miles Calm Calm - N/A   Clear
10:55 AM 37.4°F 30.2°F 75% 30.13 in 10.0 miles Calm Calm - N/A   Clear
11:15 AM 37.4°F 32.0°F 81% 30.13 in 10.0 miles Calm Calm - N/A   Clear
11:35 AM 39.2°F 28.4°F 65% 30.12 in 10.0 miles Calm Calm - N/A   Clear
11:55 AM 39.2°F 32.0°F 75% 30.12 in 10.0 miles Calm Calm - N/A   Clear
12:15 PM 39.2°F 32.0°F 75% 30.11 in 10.0 miles Calm Calm - N/A   Clear
12:35 PM 39.2°F 32.0°F 75% 30.10 in 10.0 miles NE 5.8 mph - N/A   Clear
1:35 PM 41.0°F 32.0°F 70% 30.09 in 10.0 miles NE 3.5 mph - N/A   Clear
1:55 PM 41.0°F 30.2°F 65% 30.09 in 10.0 miles NE 4.6 mph - N/A   Clear
2:15 PM 41.0°F 30.2°F 65% 30.09 in 10.0 miles ENE 4.6 mph - N/A   Clear
2:35 PM 41.0°F 28.4°F 61% 30.09 in 10.0 miles East 3.5 mph - N/A   Clear
2:55 PM 39.2°F 28.4°F 65% 30.09 in 10.0 miles Calm Calm - N/A   Clear
3:15 PM 39.2°F 28.4°F 65% 30.09 in 10.0 miles Calm Calm - N/A   Clear
3:35 PM 39.2°F 28.4°F 65% 30.09 in 10.0 miles Calm Calm - N/A   Clear
4:15 PM 39.2°F 28.4°F 65% 30.10 in 10.0 miles Calm Calm - N/A   Clear
4:35 PM 39.2°F 28.4°F 65% 30.11 in 10.0 miles Calm Calm - N/A   Clear
4:55 PM 39.2°F 28.4°F 65% 30.10 in 10.0 miles Calm Calm - N/A   Partly Cloudy
5:15 PM 39.2°F 30.2°F 70% 30.09 in 10.0 miles Calm Calm - N/A   Clear
5:35 PM 39.2°F 30.2°F 70% 30.09 in 10.0 miles NE 4.6 mph - N/A   Clear
5:55 PM 39.2°F 30.2°F 70% 30.09 in 10.0 miles NE 6.9 mph - N/A   Clear
6:15 PM 39.2°F 30.2°F 70% 30.08 in 10.0 miles ENE 3.5 mph - N/A   Clear
6:35 PM 39.2°F 32.0°F 75% 30.08 in 10.0 miles ESE 3.5 mph - N/A Rain Light Rain
6:55 PM 39.2°F 32.0°F 75% 30.09 in 6.0 miles East 3.5 mph - N/A Rain Light Rain
7:15 PM 37.4°F 32.0°F 81% 30.09 in 9.0 miles East 3.5 mph - N/A Rain Light Rain
7:35 PM 37.4°F 33.8°F 87% 30.10 in 10.0 miles NE 4.6 mph - N/A Rain Light Rain
7:55 PM 39.2°F 32.0°F 75% 30.09 in 10.0 miles NE 3.5 mph - N/A Rain Light Rain
8:15 PM 39.2°F 32.0°F 75% 30.10 in 10.0 miles ENE 4.6 mph - N/A Rain Light Rain
8:35 PM 37.4°F 32.0°F 81% 30.10 in 10.0 miles East 5.8 mph - N/A Rain Light Rain
8:55 PM 37.4°F 32.0°F 81% 30.10 in 10.0 miles ENE 5.8 mph - N/A Rain Light Rain
9:15 PM 37.4°F 33.8°F 87% 30.09 in 10.0 miles ENE 3.5 mph - N/A   Mostly Cloudy
9:35 PM 39.2°F 33.8°F 81% 30.09 in 10.0 miles East 4.6 mph - N/A   Overcast
9:55 PM 39.2°F 32.0°F 75% 30.09 in 10.0 miles North - - N/A   Overcast
10:15 PM 39.2°F 32.0°F 75% 30.10 in 10.0 miles ESE 4.6 mph - N/A   Overcast
10:35 PM 39.2°F 32.0°F 75% 30.11 in 10.0 miles ESE 5.8 mph - N/A   Overcast
10:55 PM 39.2°F 33.8°F 81% 30.10 in 10.0 miles NE 5.8 mph - N/A   Overcast
11:15 PM 39.2°F 35.6°F 87% 30.11 in 10.0 miles ENE 4.6 mph - N/A   Overcast
11:35 PM 39.2°F 33.8°F 81% 30.11 in 7.0 miles ENE 6.9 mph - N/A Rain Light Rain
11:55 PM 37.4°F 33.8°F 87% 30.11 in 10.0 miles ENE 4.6 mph - N/A   Overcast
Moon Phase
Jan. 03 Jan. 04 Jan. 11 Jan. 18 Jan. 26
Sunrise:08:04 AM (PST) Moon Rise:11:47 PM (PST)1/3
Sunset:04:28 PM (PST) Moon Set:10:44 AM (PST)1/3

Copyright © 2014 The Weather Underground, Inc.